Theta_e
303 304 306 309 310 310 310 311 311 311 310 309 309 311 313 313 308 304 303 304 304 304 304 304 304 304 305 305 306 306 306 307 307 307 308 309 309 308 308 308 308 309 312 312 311 310 309 309 309 307 307 311 315 317 316 317 317 315 318 319 317 317 316 318 319 315 314 316 316 312 312 312 313 328 339 341 340 340 339 339 340 341 340 340 341 340 342 346
302 303 305 308 310 311 311 311 312 311 310 309 309 309 311 312 310 305 303 304 303 304 304 304 304 303 304 305 306 306 306 307 307 309 311 312 310 308 308 308 308 310 311 311 310 309 308 308 308 308 310 314 315 316 316 316 316 315 317 317 318 319 315 314 316 314 313 314 314 312 313 312 312 318 329 342 342 339 344 343 340 341 341 341 342 341 344 346
302 302 304 307 309 311 311 311 312 312 310 309 308 309 310 311 310 306 304 304 304 304 304 304 304 303 304 304 305 306 306 307 310 313 315 314 311 309 308 308 308 310 311 311 310 309 308 309 309 310 313 315 315 315 315 314 315 313 313 317 320 318 314 311 313 314 313 313 312 312 312 312 314 312 319 338 339 338 346 345 340 340 341 342 343 343 345 346
302 302 303 304 308 310 311 311 312 312 311 310 308 308 309 311 311 308 305 304 304 304 304 304 305 303 303 304 305 305 306 311 315 315 316 315 313 310 308 308 308 310 312 311 311 309 308 310 311 312 315 314 312 314 313 313 313 312 312 317 318 312 313 314 313 315 314 313 312 312 312 312 314 312 322 335 338 338 338 339 338 338 340 341 344 345 346 345
302 302 302 303 305 308 310 311 311 311 311 311 309 308 309 310 312 311 308 305 304 304 304 305 304 303 303 303 305 305 307 316 319 316 317 317 314 311 309 308 309 310 311 311 311 310 309 311 313 313 314 312 312 313 313 313 312 312 311 313 313 310 312 314 313 313 313 313 312 311 312 314 313 313 325 332 334 337 331 330 333 333 338 340 343 346 345 344
302 302 302 302 303 305 307 310 311 311 311 311 310 309 308 309 311 312 311 308 305 304 304 304 304 303 303 303 304 304 308 318 318 315 316 317 316 313 311 309 309 311 311 311 311 310 309 312 313 313 312 312 313 314 314 313 312 314 313 310 311 311 312 313 313 312 312 312 311 312 312 313 313 312 321 324 324 328 323 326 333 334 337 339 342 346 344 343
302 302 302 302 302 303 305 307 309 311 311 311 311 309 308 308 309 312 312 311 308 306 305 304 304 303 303 303 304 304 307 312 316 317 317 317 317 314 312 310 309 311 311 312 312 309 310 311 313 312 313 314 312 313 314 312 311 313 313 310 312 312 311 313 313 312 312 312 311 312 312 312 313 311 318 326 327 328 326 329 335 336 338 340 343 345 342 342
302 302 302 302 302 302 303 304 307 309 311 311 311 310 309 308 308 310 312 312 310 309 307 304 303 303 303 303 304 306 306 310 316 318 318 317 317 314 313 311 309 311 311 312 311 309 310 312 313 313 314 315 312 313 312 311 310 311 313 311 311 311 311 312 312 312 311 311 312 311 311 312 313 313 322 336 338 336 334 335 338 338 339 341 343 343 341 341
301 301 302 302 302 302 302 303 304 306 309 310 311 311 310 309 308 309 311 312 311 311 310 306 304 303 303 303 305 307 308 314 316 317 317 317 316 314 313 311 310 310 310 311 310 308 310 312 313 313 314 313 310 311 309 310 312 311 312 310 310 311 312 312 312 314 312 311 311 310 312 312 312 316 327 340 341 339 338 338 339 338 339 341 341 340 340 341
302 301 301 302 302 302 302 302 303 304 306 309 310 310 310 309 308 308 309 311 311 311 311 309 306 304 303 304 306 308 310 316 316 316 317 315 314 313 312 311 311 310 309 310 308 310 312 312 314 314 314 313 310 311 308 310 311 310 310 309 311 310 311 312 312 313 311 311 311 311 314 311 313 318 327 340 341 340 338 339 339 338 339 339 340 340 340 342
302 301 301 301 302 302 302 303 303 303 304 306 308 309 310 310 309 307 307 309 311 311 312 311 309 306 304 304 306 308 311 316 316 315 315 313 313 311 311 311 310 309 308 308 309 312 313 313 315 314 314 313 311 310 309 310 311 311 311 311 312 309 311 311 310 310 310 312 311 312 313 310 314 318 327 340 342 339 338 338 339 338 339 339 339 340 340 342
303 302 301 301 302 303 302 303 303 303 303 304 306 308 309 310 310 308 307 308 309 311 311 311 310 308 306 305 306 307 310 316 316 315 315 314 312 309 309 310 309 309 308 308 311 313 313 314 315 314 313 313 312 311 310 311 311 311 310 313 315 313 314 312 309 309 309 313 312 311 311 312 314 314 329 341 341 340 338 338 339 338 338 338 339 340 341 341
303 303 302 301 302 303 303 303 303 303 303 303 305 306 308 309 309 308 308 307 308 310 311 312 311 310 308 307 307 307 310 316 316 315 315 313 310 308 308 308 309 308 308 308 311 313 313 313 313 314 313 313 313 312 311 311 310 312 310 312 315 316 318 312 309 309 310 313 312 312 312 317 318 311 329 345 340 339 339 338 339 337 338 338 339 340 340 341
303 303 303 302 302 303 303 303 303 303 303 303 303 305 307 308 309 308 308 307 307 309 311 312 310 310 309 309 308 308 310 315 315 315 315 313 310 308 307 308 308 307 308 308 310 311 312 312 312 312 312 312 312 310 312 313 313 313 310 313 314 313 319 315 309 310 311 313 312 312 311 318 319 313 331 345 339 339 339 338 339 337 338 337 338 339 339 340
303 303 303 303 302 303 303 303 303 303 303 303 303 303 305 307 308 308 307 307 307 309 311 311 311 310 310 310 308 310 311 312 314 314 315 313 310 308 308 308 307 308 310 309 310 310 311 311 311 312 312 311 312 314 316 318 320 316 310 317 318 312 319 319 312 311 313 313 311 311 314 317 315 317 336 345 339 340 339 339 339 337 338 337 338 338 339 340
302 302 303 303 303 303 303 303 303 303 303 303 303 303 304 305 307 306 307 307 308 311 312 311 312 311 312 313 311 312 313 313 314 315 315 313 310 309 310 309 310 311 311 311 311 310 311 311 312 312 310 309 313 320 321 320 326 324 315 318 319 315 318 319 315 311 310 311 310 311 316 319 312 317 338 345 340 341 340 340 339 338 338 337 337 338 339 340
302 302 303 302 303 303 303 303 303 303 304 304 303 304 304 305 306 307 308 310 314 315 312 312 313 311 313 314 312 314 314 315 315 316 316 313 311 312 312 312 312 312 313 312 311 312 312 312 311 311 313 315 317 321 318 317 323 324 321 321 320 317 316 318 318 312 309 311 312 311 315 318 317 325 340 345 341 341 340 340 339 339 339 337 338 338 339 340
302 302 302 302 303 303 303 303 304 304 304 305 305 306 307 308 309 311 313 316 318 315 313 313 311 310 311 310 311 313 314 314 314 316 316 313 312 312 312 313 312 312 313 311 311 312 311 310 311 313 316 319 321 321 319 320 321 318 319 321 320 319 317 318 320 315 313 313 311 312 313 315 324 333 341 343 342 341 339 340 339 339 339 338 337 337 338 339
302 302 302 302 302 302 303 303 304 305 305 307 308 308 310 312 314 315 317 319 317 314 314 313 311 311 311 310 311 313 314 314 314 315 316 314 312 311 312 311 313 312 310 312 312 310 310 310 311 314 316 317 318 319 319 321 321 316 315 317 318 319 318 318 317 316 314 313 312 313 314 316 329 337 340 342 342 340 339 340 340 340 339 338 337 336 337 339
302 302 302 302 302 302 303 304 304 306 306 308 309 310 311 312 314 316 317 317 316 315 315 315 313 313 314 314 313 314 314 315 314 315 315 314 311 311 312 311 312 311 311 315 314 309 311 313 314 316 319 322 322 320 318 319 317 315 315 317 318 318 319 317 317 317 314 314 314 314 318 323 332 336 336 338 341 339 340 339 339 339 339 339 338 337 336 337
301 302 302 302 302 302 303 303 304 305 306 308 308 311 312 312 314 316 314 314 315 315 315 315 315 315 315 315 315 315 315 315 315 315 314 314 312 311 312 311 312 312 311 311 311 312 313 314 317 321 321 324 327 323 318 317 317 315 315 318 319 318 320 318 317 319 317 317 316 315 319 320 323 328 330 335 339 338 338 338 338 339 338 339 338 338 337 337
301 302 302 302 302 302 302 303 304 304 305 307 309 311 313 312 314 315 314 314 315 315 316 316 315 315 315 315 316 315 315 315 315 315 314 313 313 312 311 311 313 315 313 310 311 315 315 316 321 320 317 319 323 322 320 318 319 319 317 318 319 317 318 319 321 323 320 319 318 316 319 318 320 323 324 330 335 334 336 337 337 338 337 338 337 337 337 336
301 302 301 302 302 302 302 303 304 304 305 307 309 312 313 313 316 316 314 314 316 316 315 316 315 315 315 315 315 315 314 315 315 316 315 313 313 311 310 311 313 315 313 313 315 315 314 318 318 315 315 317 318 321 323 319 318 321 319 317 318 317 317 319 324 325 321 320 320 321 322 322 326 325 320 323 326 329 334 335 336 336 335 337 336 336 337 336
302 301 301 302 302 302 302 302 303 304 305 307 310 313 313 314 317 316 315 316 318 317 315 315 315 315 314 314 314 314 314 315 316 316 315 313 312 311 310 311 312 313 312 315 317 314 314 315 313 315 319 318 315 319 322 317 317 324 323 317 319 320 318 319 321 324 326 321 321 328 327 323 327 327 321 321 325 329 332 333 334 335 334 334 334 335 336 336
301 301 302 301 302 302 302 302 304 306 307 308 311 313 312 314 317 315 315 318 320 319 316 315 315 315 314 314 315 315 315 315 316 316 315 314 312 311 311 310 311 312 312 314 314 314 315 311 310 316 319 317 316 320 323 319 318 325 325 321 324 325 321 322 323 327 332 323 317 324 325 321 328 332 325 322 328 331 331 332 333 333 333 333 333 335 335 335
301 302 302 302 302 302 302 303 304 305 306 308 311 314 313 314 316 314 317 322 324 322 318 315 315 316 314 314 314 314 315 315 315 316 315 315 313 312 311 310 311 313 313 314 314 316 316 312 312 317 320 319 317 320 324 321 318 320 322 323 327 328 323 323 327 326 326 322 317 320 324 323 327 332 326 321 327 330 329 332 332 331 333 333 333 335 335 336
300 301 301 302 302 302 302 302 303 303 304 309 314 315 314 315 314 312 315 320 323 320 317 315 314 314 314 314 314 315 317 317 315 316 315 315 314 312 312 312 310 310 311 312 314 317 315 314 316 319 323 321 318 322 324 319 318 320 321 322 326 327 322 327 334 328 322 321 320 324 328 323 322 325 324 320 323 327 328 331 330 327 330 332 333 333 335 336
300 300 301 302 301 302 302 302 303 302 305 312 316 315 315 314 314 315 317 315 314 316 316 313 313 312 313 314 315 316 316 316 315 315 315 315 314 311 312 313 312 313 312 312 317 319 316 316 320 322 321 319 321 328 324 317 318 322 321 321 324 325 326 332 335 330 326 320 320 328 326 319 326 332 327 323 323 325 329 333 331 327 327 329 332 333 334 335
300 300 300 301 301 302 301 301 303 303 310 316 316 316 316 312 312 318 318 313 311 315 314 313 314 312 312 314 314 315 315 314 314 314 314 314 313 312 312 310 312 313 311 312 319 320 315 313 317 321 320 321 327 326 318 316 318 319 317 318 320 322 328 333 331 329 329 322 322 328 321 316 327 333 327 323 324 324 326 327 324 322 325 328 329 331 333 333
300 300 300 301 301 301 301 302 302 302 310 317 317 316 313 312 320 320 315 313 314 315 313 312 315 312 312 313 313 314 314 314 314 312 312 313 312 311 312 310 311 314 317 318 319 317 314 312 313 317 317 319 325 317 310 314 315 314 318 319 317 323 329 332 332 331 328 323 325 327 322 317 322 326 325 323 321 319 320 323 321 317 321 327 328 329 331 331
300 300 300 300 301 301 301 303 303 304 309 315 317 315 310 313 322 320 315 314 314 316 314 314 315 312 312 313 313 313 313 313 313 312 313 313 312 311 312 312 312 318 326 325 320 318 317 315 315 316 313 313 317 313 307 310 313 315 322 320 317 323 326 326 329 328 324 325 327 326 322 318 319 324 322 321 320 318 318 322 322 315 315 323 327 328 329 330
300 300 300 300 300 301 301 302 305 308 311 313 313 314 313 313 314 317 319 316 314 317 316 314 314 313 312 313 314 314 313 314 313 313 315 313 314 314 312 315 317 319 322 321 320 320 320 319 317 315 313 312 315 316 310 311 316 318 321 322 320 322 322 321 325 324 324 326 323 322 320 318 325 326 318 319 323 321 318 318 318 314 312 318 325 327 328 328
300 300 300 300 300 301 302 302 303 307 310 310 309 314 317 313 312 316 317 314 313 315 314 314 314 313 312 314 314 314 314 315 314 313 314 314 315 313 312 316 319 320 321 318 317 318 319 321 318 315 314 312 315 318 313 314 317 315 318 322 321 322 320 319 321 320 322 324 319 318 319 319 326 324 318 320 321 320 320 319 319 317 316 320 324 327 328 327
300 300 300 301 301 301 303 302 301 303 305 306 310 315 314 311 315 318 317 315 315 314 313 313 312 312 313 315 315 315 315 316 315 312 313 313 314 315 314 313 313 320 325 318 314 317 319 320 321 318 315 313 315 317 318 322 318 313 316 318 318 325 324 320 322 324 323 322 319 316 316 320 324 320 317 317 317 319 323 322 323 323 322 325 325 326 327 326
300 301 301 301 301 301 302 302 302 302 302 306 315 317 313 311 315 318 320 320 317 313 312 311 311 313 316 317 316 314 315 318 316 313 314 315 316 319 318 313 313 320 323 318 316 316 315 319 324 318 311 312 313 312 314 319 316 311 312 314 315 322 327 320 317 323 325 322 319 316 316 323 324 318 316 316 318 322 323 322 324 324 324 326 325 325 326 326
301 302 302 303 306 306 303 301 302 301 302 309 315 316 315 314 313 316 318 317 312 311 312 312 313 316 318 319 320 316 313 316 317 314 314 315 316 318 317 315 314 315 318 321 322 318 314 319 323 316 311 312 311 310 311 313 315 313 311 315 316 315 324 324 314 316 321 321 318 315 317 323 322 319 319 322 325 324 323 323 322 323 325 325 325 325 325 325
303 303 304 307 310 310 307 302 302 301 303 311 315 317 318 315 312 315 316 312 310 311 311 313 315 317 318 320 323 320 315 319 320 316 317 318 316 317 318 316 313 312 315 319 321 321 320 322 320 314 312 311 308 308 311 309 312 316 314 315 314 311 318 326 322 319 318 319 319 315 316 323 326 324 321 321 325 325 324 324 322 322 324 323 324 324 324 325
305 304 306 309 311 312 310 304 301 301 306 312 317 319 317 311 310 314 314 311 311 312 310 312 314 315 316 319 323 321 316 320 322 316 319 321 316 317 320 317 313 310 311 312 314 317 318 320 320 315 312 312 311 312 313 310 309 313 314 312 312 317 319 318 321 323 318 317 319 315 315 320 326 330 324 318 324 327 325 325 325 323 322 322 323 322 321 322
306 305 307 310 310 311 310 303 300 303 308 313 316 317 314 313 313 312 312 312 312 311 312 313 312 312 315 319 323 320 315 322 323 316 320 323 316 315 316 316 314 310 308 311 314 317 317 318 319 316 311 311 315 317 319 318 310 308 312 310 314 324 323 317 319 322 320 319 319 317 317 321 326 330 327 322 327 329 326 327 327 323 321 322 323 321 321 322
307 306 307 310 309 307 305 302 302 306 310 313 315 315 313 314 315 311 311 313 310 311 313 313 310 311 315 316 317 317 315 322 323 316 319 323 317 315 316 316 316 311 309 310 315 319 317 313 317 320 315 312 314 314 317 320 314 312 315 313 315 317 314 315 315 314 320 324 322 319 319 324 329 328 325 322 326 328 326 326 325 321 321 323 323 323 323 323
308 308 308 309 308 305 303 305 308 310 313 313 313 315 314 313 314 313 312 312 311 310 311 311 310 311 313 312 313 315 314 317 320 317 318 318 316 317 316 314 314 312 312 313 317 321 317 315 323 326 318 314 312 309 310 312 314 318 317 314 318 319 315 317 314 311 318 322 321 322 324 327 327 323 323 322 323 324 322 321 322 320 322 323 323 323 323 323
309 310 309 309 309 307 308 312 311 311 316 315 312 314 313 312 314 313 311 310 310 310 309 309 310 310 311 311 311 314 314 315 317 317 316 314 314 315 312 310 311 312 316 315 313 316 319 323 324 318 313 312 310 309 310 309 310 316 314 313 319 321 320 327 325 317 317 314 314 320 326 327 322 318 319 319 318 320 320 320 321 320 322 323 323 323 323 324
309 309 308 308 310 310 312 315 313 312 316 315 311 311 311 312 312 311 311 310 309 309 309 308 309 309 310 310 310 313 314 312 312 314 315 315 313 311 309 310 310 312 317 318 313 314 320 324 318 315 318 319 315 315 315 311 311 314 313 313 315 313 316 327 328 324 322 318 316 316 320 325 322 316 314 313 315 320 320 320 321 320 322 322 322 324 324 325
307 308 306 308 312 312 311 312 311 314 317 313 311 312 310 309 309 309 310 309 308 309 310 310 310 309 309 311 312 312 312 311 311 312 314 315 313 310 309 311 312 315 317 317 317 318 318 317 316 316 318 318 316 317 318 315 314 312 312 313 312 312 315 317 317 322 323 319 318 318 321 325 321 316 315 315 319 321 318 320 321 320 321 322 323 324 324 324
307 309 306 306 309 309 308 307 307 311 315 313 312 311 310 310 308 307 308 308 306 306 308 310 308 307 310 314 314 311 309 311 314 313 314 315 313 309 308 309 313 318 319 314 313 318 318 318 323 323 316 313 315 318 320 319 314 311 313 315 313 313 314 312 314 323 322 312 315 324 326 323 319 318 320 320 322 322 318 319 321 320 321 322 322 323 323 322
307 309 307 307 306 305 305 304 304 307 310 311 311 309 309 311 310 306 307 308 306 305 305 306 305 308 314 316 316 314 311 311 313 313 313 315 315 311 307 308 310 314 318 312 308 318 321 315 319 324 318 316 318 316 315 318 316 313 313 314 315 315 316 317 317 321 319 313 315 322 323 320 318 317 317 317 318 321 318 316 318 319 320 321 321 322 322 322
306 307 306 306 306 306 305 304 303 305 306 308 310 307 307 309 309 308 308 307 306 306 305 304 303 308 312 313 316 316 313 312 313 312 311 311 314 312 307 307 308 308 313 310 307 320 327 314 311 317 315 312 315 311 309 314 315 312 312 312 313 317 320 321 315 312 315 318 319 318 317 319 315 310 311 311 312 315 313 309 313 316 317 319 320 321 322 321
304 304 303 304 305 306 306 305 304 304 304 307 308 306 306 307 307 308 308 307 306 306 308 307 303 304 305 308 315 315 312 314 313 311 310 309 312 315 311 309 308 305 309 312 310 318 328 317 310 313 312 309 311 310 309 311 311 311 315 314 314 318 321 318 315 311 313 321 323 317 315 316 310 306 308 307 306 308 307 306 310 313 315 317 319 320 321 321
303 303 302 303 304 303 304 304 304 305 305 306 306 305 304 305 307 306 306 309 310 306 308 307 304 303 302 306 314 312 309 312 312 308 309 309 311 314 313 313 311 305 307 314 313 314 319 316 310 313 313 309 311 312 309 311 313 313 314 312 313 317 316 315 315 310 310 315 316 314 314 311 305 304 306 304 304 306 306 308 310 311 312 314 316 317 318 319
302 303 302 302 301 300 301 303 305 306 306 305 305 304 303 304 306 305 303 306 309 307 306 306 304 303 302 304 308 308 305 307 309 307 307 310 312 311 310 310 309 306 308 312 312 312 315 314 313 316 315 310 311 312 309 311 316 315 312 310 311 312 313 313 313 310 311 311 307 310 314 309 304 303 303 302 304 305 306 307 307 308 310 311 313 314 315 315
302 302 302 302 301 300 300 302 304 307 307 305 304 305 303 303 304 305 303 302 303 304 305 305 304 303 304 304 305 305 303 304 305 305 304 306 308 308 308 307 306 307 310 310 310 315 317 313 312 317 316 311 309 310 309 312 314 313 312 312 311 312 312 311 309 307 308 309 309 312 314 308 304 303 301 301 302 302 303 304 304 306 309 310 310 311 312 312
302 302 302 302 302 299 299 300 303 306 306 304 303 304 304 303 302 305 306 302 300 301 302 302 303 304 305 305 304 303 301 301 302 302 302 303 303 303 305 305 304 305 308 309 311 314 316 313 311 314 314 309 308 310 310 312 312 312 311 308 307 308 307 307 306 303 302 305 310 313 310 305 303 302 301 301 300 300 300 301 302 304 306 308 309 309 309 309
Wind_Speed
12 12 12 11 10 10 9 8 8 8 9 10 12 13 13 13 12 12 11 10 10 11 11 11 11 10 10 10 10 10 11 11 11 13 12 7 3 8 8 8 10 13 12 11 10 8 8 8 8 9 10 10 8 7 7 5 4 3 3 2 2 3 3 4 6 5 3 3 5 9 12 5 4 5 9 9 11 11 8 6 5 5 1 9 9 9 27 28
12 12 12 11 10 9 9 8 7 8 9 10 11 12 14 14 13 12 11 11 11 11 11 11 11 10 10 10 10 10 10 10 11 10 5 3 2 5 6 9 11 13 13 12 10 6 6 8 9 10 10 9 6 6 6 6 6 3 3 2 4 4 4 5 6 5 3 3 7 13 12 5 6 2 7 4 2 3 5 6 5 5 5 10 10 16 28 27
12 12 12 11 10 10 9 9 8 8 9 9 11 12 13 14 14 12 11 11 10 10 11 11 11 10 10 10 10 10 10 11 10 3 2 4 3 2 5 10 11 13 13 12 9 5 5 7 9 10 10 7 5 5 4 4 6 3 2 2 5 5 4 5 8 11 10 7 8 12 11 10 11 5 5 6 4 1 2 4 5 7 11 14 15 24 29 27
12 12 12 12 11 10 10 10 8 8 8 9 10 12 13 13 13 13 12 11 10 10 10 11 10 10 9 9 9 9 10 10 3 4 3 3 4 2 3 9 11 13 14 11 9 6 5 8 9 10 9 5 3 3 2 4 5 2 3 4 5 5 3 8 13 15 16 10 7 9 10 12 10 4 4 10 7 2 6 9 6 8 18 20 23 30 30 27
12 12 12 12 12 11 11 11 9 8 8 9 10 11 12 13 12 12 13 12 11 11 10 10 9 9 9 8 8 8 8 5 4 5 2 2 3 3 1 7 11 13 14 12 10 8 8 10 9 9 7 3 3 2 1 6 5 1 4 6 6 5 2 9 10 10 12 9 8 7 6 8 7 4 5 10 6 2 5 9 9 10 19 21 27 34 31 28
12 12 12 12 12 12 12 12 11 9 9 9 9 10 11 12 13 12 12 12 13 12 11 10 9 9 8 7 7 6 4 0 4 1 1 1 1 1 0 6 12 13 14 12 11 10 9 11 9 7 5 2 3 2 3 6 5 3 4 4 7 6 5 9 9 7 10 9 9 7 5 9 7 5 4 6 3 4 6 9 11 13 18 21 29 35 32 28
13 12 11 11 11 11 12 12 12 10 9 9 9 10 10 11 12 12 12 12 12 13 13 11 9 9 8 7 6 6 7 5 1 0 2 2 1 2 2 6 11 13 14 13 12 11 11 11 9 7 5 2 3 4 3 3 5 5 3 4 8 8 8 13 14 12 13 13 15 13 10 11 8 5 2 4 5 6 7 7 12 17 20 25 32 35 31 29
14 13 12 11 11 11 12 13 13 11 10 10 9 10 10 10 11 11 12 12 12 12 13 12 9 8 7 7 6 7 9 6 1 0 1 2 3 4 4 7 11 14 13 13 13 12 11 11 9 7 3 1 4 3 2 0 1 4 4 5 6 7 10 15 16 17 17 17 19 14 10 15 16 7 2 2 2 2 4 9 16 21 23 27 32 33 32 31
15 13 12 11 11 11 11 12 13 12 11 10 10 10 10 10 10 11 11 11 12 11 12 12 10 9 7 6 6 7 5 3 2 2 1 2 4 5 6 7 10 14 13 13 12 12 11 11 9 6 2 2 3 3 2 2 2 5 9 6 5 9 14 14 14 17 16 14 13 6 8 17 16 6 3 1 4 6 9 14 19 23 25 28 31 33 34 34
17 15 12 11 10 10 11 11 12 12 12 11 10 10 10 10 10 11 11 12 12 12 12 11 11 9 7 6 3 2 3 4 2 2 1 3 4 6 8 8 9 12 13 13 14 14 12 10 8 4 1 1 1 2 3 3 2 6 8 7 8 12 14 11 11 15 12 9 9 8 7 10 5 5 3 3 9 11 14 18 21 24 27 30 31 33 34 34
19 16 13 12 11 11 10 11 11 11 12 12 11 10 11 11 11 11 11 11 12 13 13 11 11 10 8 7 4 3 3 4 3 2 1 4 5 5 7 8 8 10 12 14 15 15 12 9 6 3 1 1 1 2 4 4 4 5 4 5 9 8 11 9 9 14 8 5 11 12 6 2 3 3 4 9 14 14 18 23 23 25 28 31 32 33 34 33
21 18 15 12 11 11 11 11 11 11 11 11 11 11 11 12 11 12 11 12 12 13 13 11 11 10 10 11 11 6 2 5 5 2 2 4 5 3 4 6 7 7 10 14 17 15 11 9 5 1 1 2 3 1 2 3 4 5 1 2 7 8 7 7 5 7 5 3 8 10 2 3 1 3 5 15 19 17 22 25 25 27 28 31 32 32 33 32
20 20 17 14 12 12 11 11 10 10 10 11 11 12 12 12 12 13 13 13 13 13 13 11 11 12 12 11 9 4 5 8 7 5 3 4 5 4 5 6 6 5 8 13 15 12 10 8 5 3 4 3 2 1 3 5 3 3 1 1 4 7 6 6 1 2 5 4 7 10 2 5 7 6 7 19 23 22 22 22 24 26 28 29 31 31 30 30
19 19 19 16 14 13 12 11 11 10 10 10 11 12 12 13 13 14 14 15 14 14 13 11 11 12 11 11 7 3 9 11 9 6 4 4 5 4 6 8 8 7 10 12 10 8 8 7 5 6 7 7 5 3 4 5 2 1 1 2 3 2 4 7 3 3 3 5 9 12 3 6 8 7 11 21 24 26 22 20 22 25 27 28 28 29 28 28
18 18 18 18 16 13 12 12 11 10 10 10 10 11 12 13 14 14 15 16 15 14 13 12 11 10 12 14 8 4 9 11 9 4 4 5 4 4 7 9 10 10 11 10 8 7 6 5 5 5 6 6 4 2 3 4 3 2 1 2 3 1 4 10 5 5 5 5 5 9 2 5 8 7 17 23 23 24 21 20 21 23 25 26 26 27 27 28
19 18 18 18 17 15 13 12 11 10 10 10 10 10 11 12 14 15 16 17 16 14 11 9 9 8 9 9 3 3 6 9 8 5 5 5 4 6 9 10 10 11 10 7 7 5 4 5 5 5 3 1 2 3 4 4 4 4 2 2 3 1 2 6 4 5 7 2 1 5 3 2 6 5 16 22 21 20 19 20 21 22 23 24 25 26 28 28
19 18 18 17 17 16 13 12 11 10 9 9 9 9 10 12 13 15 16 16 14 11 9 8 8 9 8 4 1 1 1 3 6 6 6 4 6 7 8 8 8 8 6 3 5 6 5 4 3 3 1 2 3 4 3 3 3 4 2 0 2 2 2 3 5 4 1 1 3 3 3 3 6 3 13 18 19 17 16 17 19 21 22 24 25 27 28 28
19 19 18 17 17 16 14 12 11 9 9 8 8 9 10 11 13 14 14 12 7 4 6 7 4 5 6 6 4 1 4 6 5 5 7 6 9 8 6 4 4 3 3 2 4 5 5 3 1 1 3 4 3 5 3 3 3 2 0 0 2 3 2 3 5 3 3 1 4 3 3 5 5 2 10 15 18 16 14 14 16 19 22 25 25 26 28 28
20 19 18 18 17 16 15 13 10 8 8 8 9 10 10 10 11 11 9 6 4 2 4 6 6 3 6 8 8 6 7 9 6 5 9 8 10 10 7 4 3 3 2 2 2 3 5 2 2 2 1 1 2 5 6 7 5 5 4 4 2 3 4 5 6 4 0 2 3 4 5 5 3 4 8 12 17 17 14 13 14 20 23 24 23 25 27 29
20 19 19 18 17 17 16 13 10 8 9 9 10 10 7 8 7 5 7 10 13 13 14 15 14 15 17 15 12 10 10 9 5 5 9 10 11 11 8 5 2 1 2 3 2 1 3 3 1 4 6 6 7 6 6 5 4 3 3 3 3 3 4 6 6 6 1 4 1 4 6 6 6 6 6 12 16 14 14 12 14 21 24 24 24 24 26 28
20 19 19 18 17 17 16 14 11 9 9 9 9 8 5 6 5 5 10 15 19 19 20 20 19 21 22 17 15 14 11 6 3 6 8 11 12 9 7 5 3 1 2 2 2 2 3 3 5 8 9 8 7 5 5 4 3 2 2 2 3 3 4 7 4 6 3 3 3 0 6 3 4 3 3 10 12 10 13 15 18 23 23 24 26 25 25 26
20 20 19 18 17 17 16 15 13 10 10 8 8 6 5 5 6 8 9 11 19 22 19 18 20 24 24 20 20 18 11 5 4 6 8 12 13 9 6 5 4 2 2 2 3 4 3 2 10 9 6 5 4 4 5 3 3 3 2 2 2 3 3 7 5 5 4 4 1 1 5 2 5 3 3 4 4 3 9 14 19 23 23 26 27 26 25 24
20 20 19 18 17 16 16 16 14 12 10 7 7 5 5 7 8 11 8 8 17 21 17 16 20 24 23 20 19 16 10 6 5 7 10 13 15 11 8 5 4 3 2 3 5 1 0 5 8 5 7 6 2 3 6 4 2 2 3 3 3 3 1 2 4 5 5 3 3 4 5 4 6 2 2 2 0 2 6 10 15 21 23 25 26 25 25 25
21 20 20 18 17 16 16 16 15 12 9 6 5 4 6 8 9 12 8 6 9 12 12 12 13 18 21 14 11 13 13 8 6 8 12 15 14 10 8 5 5 3 2 5 7 5 5 7 3 7 7 7 4 3 6 5 2 3 3 5 3 4 4 4 3 5 5 4 4 6 5 4 5 3 2 3 2 4 6 9 12 17 19 19 21 22 24 25
21 21 20 19 18 16 15 15 12 9 8 5 3 5 7 8 9 12 6 2 5 6 6 6 7 11 13 9 8 12 11 10 11 10 13 19 17 9 5 6 5 3 5 5 7 4 7 7 5 6 4 5 5 4 5 7 2 4 4 8 7 5 4 3 3 5 4 5 4 5 4 3 6 4 3 2 2 3 5 9 11 14 16 16 19 22 24 25
22 21 20 19 18 16 14 12 8 8 9 5 2 5 7 7 9 10 4 3 3 5 2 2 4 4 7 10 12 10 4 6 13 13 14 17 20 12 4 4 3 3 6 5 4 2 4 2 4 5 5 5 4 3 5 7 6 1 5 8 7 5 4 2 3 4 2 0 2 4 5 1 6 4 4 4 1 2 2 5 9 13 16 17 20 22 24 26
21 21 21 19 18 17 14 10 9 11 9 4 3 5 6 6 8 8 3 4 3 3 1 2 2 3 6 9 16 13 2 4 9 14 17 16 19 16 6 3 1 2 4 4 1 3 4 3 3 3 5 5 3 3 5 8 8 2 5 7 8 6 5 4 5 4 1 2 2 5 5 4 2 4 5 4 2 2 2 4 6 11 16 18 21 22 24 26
20 21 21 19 18 17 16 13 12 11 6 3 4 4 4 5 7 4 3 3 2 1 1 2 2 3 4 8 19 14 2 4 6 10 19 18 17 14 7 6 6 5 4 6 3 5 3 4 3 4 4 2 4 5 7 10 5 5 5 7 6 5 4 4 6 3 1 2 2 6 4 4 2 5 5 5 3 4 6 5 6 9 15 19 21 22 23 25
19 20 21 20 18 17 16 15 12 8 4 4 4 3 3 4 3 3 4 1 2 1 0 2 3 3 4 8 16 14 3 2 2 5 14 17 17 10 4 7 7 5 2 4 5 6 2 4 6 6 4 4 6 4 8 10 4 4 7 6 5 5 5 5 5 3 3 3 3 6 3 2 3 5 4 4 3 4 6 5 6 10 16 19 21 22 23 25
19 19 20 20 19 17 17 15 11 7 6 5 4 3 2 2 1 4 1 3 2 1 0 2 2 2 5 6 6 9 4 1 2 7 9 11 15 8 3 5 5 5 0 3 2 5 3 1 3 4 4 5 4 2 3 5 3 6 7 6 6 6 5 4 3 4 4 2 5 6 2 3 1 4 1 1 2 4 6 7 6 7 14 20 22 23 23 24
19 18 19 20 19 17 17 14 7 4 8 5 4 4 2 1 3 4 3 3 2 2 2 0 1 2 4 4 2 4 2 2 2 7 5 4 7 4 3 3 3 4 3 5 2 5 6 2 2 3 3 4 5 5 3 3 3 5 5 5 5 4 4 4 5 4 4 2 6 5 2 4 3 3 3 4 6 6 5 8 8 4 9 18 23 24 23 23
20 19 18 19 19 18 17 13 5 6 9 4 4 5 3 1 1 2 4 3 2 2 2 1 2 3 1 1 3 3 1 2 2 4 4 3 4 4 3 4 4 3 3 3 2 5 4 3 4 4 3 4 5 4 2 5 5 5 5 5 5 2 2 2 3 1 1 4 3 3 2 1 3 4 4 5 7 6 6 9 11 10 12 16 21 24 22 22
20 20 19 18 19 19 16 13 9 9 8 5 3 1 5 3 3 5 4 2 1 2 1 1 3 3 1 1 2 3 2 3 5 3 3 3 4 4 1 2 5 5 1 3 1 1 3 5 5 2 2 2 5 6 3 1 1 4 5 5 4 3 2 1 3 1 2 4 2 5 3 0 3 3 2 4 6 8 8 6 6 7 7 7 12 17 18 18
20 20 20 18 17 17 14 11 12 12 10 7 3 3 5 3 4 4 3 4 3 2 2 2 4 4 0 1 2 2 1 2 3 4 2 3 3 4 2 1 3 5 3 3 2 3 2 3 3 2 1 1 3 5 6 5 3 3 4 5 5 4 4 3 3 2 3 2 2 4 2 2 2 2 3 5 6 7 5 7 11 10 10 12 11 11 12 12
21 19 19 15 12 11 10 11 12 12 13 9 4 4 4 4 4 2 3 4 2 2 4 3 1 2 2 1 2 0 2 2 0 4 2 3 4 4 4 4 4 4 4 3 2 2 4 4 6 4 1 2 2 2 5 7 3 1 2 5 3 4 5 3 3 4 4 2 0 1 2 2 3 3 5 4 5 7 6 11 17 18 18 20 19 17 14 12
21 19 13 8 5 5 8 12 14 15 16 11 5 1 5 4 3 3 2 1 1 2 4 4 3 2 2 3 2 1 2 1 1 2 1 3 3 4 3 4 5 6 5 5 3 1 3 4 6 3 1 1 1 3 3 4 3 1 2 3 4 4 7 6 2 1 3 4 1 1 2 4 2 2 4 5 5 6 5 7 14 19 21 23 22 19 16 14
22 17 7 5 8 6 9 13 15 18 19 12 4 4 5 3 5 5 1 1 0 1 4 2 1 0 1 1 2 3 2 2 2 2 1 2 2 3 3 2 3 7 7 5 3 2 4 3 5 1 1 2 2 4 4 3 4 4 3 5 3 3 5 5 3 3 4 3 3 2 1 3 1 0 3 3 2 1 3 3 5 13 19 20 18 17 13 8
21 13 6 10 13 8 8 13 18 22 18 8 3 4 3 3 4 3 1 2 1 2 4 1 3 1 1 1 2 3 1 2 2 2 1 2 2 3 3 1 2 5 7 7 3 1 4 1 6 2 2 3 5 7 4 5 4 4 5 4 4 3 2 2 3 2 2 2 2 2 1 2 3 3 3 3 5 4 2 3 3 4 9 12 11 13 11 7
18 8 8 18 16 6 8 15 23 23 13 5 4 4 2 3 4 4 4 3 0 2 1 3 3 1 1 3 3 3 1 3 2 2 1 1 2 1 1 2 1 2 4 9 6 1 3 2 4 3 1 2 5 4 2 2 5 4 3 3 2 3 4 2 3 3 4 4 2 1 2 2 5 4 5 6 7 6 4 1 1 1 5 8 8 9 12 12
13 4 8 21 13 3 12 19 22 17 7 3 5 3 2 3 4 6 5 3 1 1 1 3 2 1 2 2 3 2 0 2 4 4 2 1 2 2 2 2 2 2 1 7 5 1 3 3 3 4 4 2 2 1 3 4 2 3 3 1 1 2 3 2 2 2 4 5 3 2 0 5 5 3 5 6 7 6 4 3 3 4 7 9 9 10 11 12
11 3 8 19 7 11 17 17 11 5 3 2 2 2 2 2 1 4 5 4 4 4 4 4 2 3 3 2 3 2 1 1 2 4 3 1 2 2 2 2 4 2 2 5 3 2 2 3 3 1 4 2 1 3 3 4 5 5 3 2 3 3 4 4 2 1 2 4 4 4 2 6 5 2 4 5 5 5 4 4 5 7 10 11 12 13 13 13
10 3 10 17 1 14 12 7 1 1 3 2 2 3 2 2 1 2 5 5 5 5 4 4 3 4 4 3 4 2 2 1 1 3 4 2 3 2 6 8 4 3 4 3 1 2 3 4 3 1 1 1 4 3 3 1 3 6 4 2 3 3 3 5 4 3 2 2 2 4 2 5 5 3 4 5 4 6 6 6 7 10 13 13 15 16 16 17
9 4 13 13 7 11 6 1 1 2 1 1 1 3 2 2 2 2 2 1 1 2 1 1 3 3 3 2 1 1 2 2 1 1 3 3 3 1 9 11 5 1 4 2 1 0 1 4 4 1 3 4 5 4 5 4 5 6 4 3 3 1 2 4 5 3 4 3 2 3 0 5 5 4 4 2 6 7 5 5 8 11 13 14 16 18 18 18
7 6 16 14 6 5 5 1 1 3 3 3 3 2 3 0 1 2 1 1 3 1 1 2 1 0 2 1 2 2 1 2 2 1 1 1 1 4 13 14 5 1 3 0 3 2 1 1 4 3 2 3 3 4 5 5 4 4 2 3 2 3 4 3 2 3 3 4 4 4 3 5 5 4 5 3 6 6 5 5 7 9 13 16 17 18 17 16
5 4 13 17 12 10 10 4 2 2 2 3 4 4 5 2 4 5 3 3 4 2 1 2 2 2 2 3 4 3 3 2 2 2 2 2 2 5 14 17 10 5 4 3 3 5 3 2 3 5 4 4 3 2 3 1 2 2 2 4 4 4 3 1 2 4 2 4 4 4 5 5 4 5 7 6 5 5 4 4 5 6 11 15 16 16 15 14
5 3 6 11 16 19 16 13 9 2 1 3 2 4 5 2 4 6 7 5 5 4 3 3 4 2 3 5 4 3 5 4 2 3 3 4 3 3 8 12 14 12 8 6 5 4 4 3 2 5 5 6 6 5 5 3 4 2 2 5 5 3 2 3 4 2 3 4 2 3 5 3 2 7 7 7 6 5 4 3 3 3 6 9 11 13 13 12
5 3 3 4 8 11 12 18 16 7 4 4 1 3 5 3 3 6 6 4 5 5 4 4 6 4 3 3 3 3 5 5 5 4 2 4 3 4 7 9 14 16 9 4 5 3 5 4 3 4 4 2 3 2 3 2 5 4 4 3 4 4 5 5 3 1 4 6 2 6 2 5 1 6 7 7 6 5 6 9 8 5 3 3 7 10 12 12
6 3 4 3 3 3 6 11 12 10 11 8 2 2 7 6 4 5 4 3 5 7 4 4 9 7 3 2 3 3 6 4 5 4 2 4 3 4 8 7 9 16 11 4 6 4 6 2 1 3 5 4 4 4 4 4 4 2 4 3 3 4 5 4 1 2 2 5 5 4 5 4 2 5 6 6 5 4 6 10 8 6 4 1 5 8 10 11
7 5 7 8 5 3 5 5 7 10 13 9 5 5 8 8 7 5 4 2 4 8 5 4 6 9 6 4 4 4 4 3 4 4 2 3 4 3 5 4 6 13 11 4 4 4 4 2 1 4 5 5 5 5 5 5 5 5 6 4 2 4 6 5 2 1 1 2 3 7 10 6 3 4 5 5 5 8 13 15 13 9 6 2 4 6 7 8
8 6 6 7 9 9 10 7 5 6 8 8 6 6 8 9 7 5 6 7 4 5 6 5 4 6 6 8 7 5 2 1 2 3 2 2 3 3 3 1 3 9 8 4 3 4 4 3 2 4 5 4 5 4 4 5 7 3 4 5 3 5 6 4 3 2 2 3 4 7 10 6 3 4 5 7 12 17 19 20 18 15 10 6 6 5 5 5
10 8 6 4 5 9 10 6 4 3 4 6 5 5 7 8 8 4 6 11 9 5 5 4 3 4 5 9 9 4 1 2 3 4 3 1 2 3 1 1 1 4 6 4 3 4 3 3 1 4 5 1 2 3 4 6 9 5 1 4 4 3 4 3 2 2 1 3 5 6 6 2 2 3 7 13 19 21 20 19 21 21 16 12 10 9 7 5
11 8 6 4 3 7 7 4 4 3 2 2 2 3 5 7 10 6 4 10 15 13 9 6 2 2 4 7 7 8 11 10 9 11 10 7 7 7 5 4 3 2 3 3 2 2 2 4 3 3 4 3 1 2 4 5 6 2 2 2 3 2 4 4 4 4 3 2 5 4 4 4 2 2 6 11 15 17 18 19 21 22 22 20 17 14 13 11
Wind_Direction
303 303 303 308 317 324 326 328 335 341 346 351 352 349 347 344 341 336 327 324 325 326 327 326 324 320 316 313 311 313 310 303 296 291 294 305 259 243 237 213 200 192 192 190 186 190 194 199 200 192 185 172 174 184 184 194 175 139 96 119 222 184 178 184 190 192 174 267 285 320 348 21 5 46 103 103 111 106 115 100 118 181 311 183 184 158 168 171
306 300 297 301 307 314 321 318 324 333 338 345 349 349 350 347 343 340 335 331 328 327 326 324 325 321 317 317 318 321 314 306 300 293 304 1 304 254 227 210 199 189 187 184 181 185 188 192 191 181 171 165 168 173 180 196 185 158 104 154 221 192 206 204 205 226 215 267 294 309 327 350 326 292 152 136 113 102 87 71 95 116 117 162 169 162 169 171
311 302 296 295 297 304 310 311 314 320 329 338 343 348 351 351 348 345 342 338 331 327 322 320 322 319 317 319 323 325 318 310 301 287 75 39 360 297 214 205 198 187 186 188 185 186 184 180 176 169 163 157 148 162 168 182 191 194 136 206 240 205 223 242 244 263 269 285 305 305 318 327 321 311 176 158 140 153 174 152 123 123 141 152 161 166 169 170
317 308 299 293 290 294 300 304 306 309 321 331 338 344 349 352 351 351 352 348 338 328 319 317 319 319 318 320 329 326 324 323 287 154 106 52 32 357 205 195 192 185 188 194 191 182 172 166 162 160 160 144 121 157 174 178 189 200 165 200 229 175 184 247 245 264 279 289 285 285 310 320 328 350 165 143 125 273 237 203 187 169 166 157 161 167 169 169
322 312 305 296 286 287 292 295 299 302 311 321 331 338 344 349 351 354 356 354 347 336 325 321 321 323 322 325 331 323 335 359 144 140 102 72 48 16 153 186 187 187 191 194 191 179 168 165 160 154 148 119 108 122 202 192 182 203 218 220 225 175 183 259 248 264 286 291 279 278 308 305 329 10 170 150 137 235 248 224 219 201 179 167 165 168 170 169
330 320 311 303 291 285 287 290 293 295 302 312 322 331 339 344 348 353 354 354 351 345 337 330 329 329 327 328 328 317 326 85 164 180 222 137 26 352 73 187 187 193 197 197 192 180 170 166 159 147 125 89 131 155 211 200 188 228 267 253 253 231 225 269 269 276 285 284 278 270 286 294 321 346 204 182 217 244 269 245 219 199 182 171 168 169 170 167
338 329 318 310 299 288 286 286 288 289 294 300 311 322 331 339 345 349 350 352 351 352 344 336 335 331 327 325 322 308 290 265 212 258 208 169 265 239 222 201 194 200 203 204 197 179 171 168 158 135 105 96 167 198 224 207 191 208 277 292 273 252 241 272 280 282 280 274 275 275 287 289 287 306 230 204 252 257 265 233 193 179 171 167 167 167 167 166
342 335 326 316 306 296 287 283 283 286 289 291 302 312 321 331 340 344 348 348 348 351 346 342 341 331 329 324 321 314 289 267 210 174 186 182 240 246 231 211 201 204 207 208 198 178 170 167 161 140 115 170 170 199 215 206 205 199 239 264 275 262 262 279 288 287 281 274 276 279 275 271 269 260 186 202 242 232 197 176 169 164 162 163 166 165 166 170
347 339 333 323 313 306 297 289 283 283 286 288 294 301 311 322 332 340 345 346 345 345 343 346 342 332 330 321 322 319 281 217 166 204 197 226 252 256 242 226 210 206 203 201 190 174 170 169 169 158 171 192 157 221 191 150 251 207 217 243 270 276 282 289 292 287 284 278 270 258 254 269 273 245 179 192 158 154 154 158 162 161 159 161 165 166 170 175
355 345 339 331 323 315 308 300 289 283 283 284 289 295 303 310 322 335 339 342 342 339 338 342 342 335 326 320 330 321 225 171 156 184 202 280 277 259 244 236 225 210 197 193 181 170 169 169 168 151 157 122 138 244 184 162 225 215 216 242 255 270 288 289 283 280 283 282 247 202 235 273 272 195 205 161 152 159 153 152 159 161 160 163 167 170 175 180
1 353 344 338 332 323 316 309 299 290 283 281 285 290 295 301 313 326 331 333 335 336 332 332 334 328 319 307 257 206 190 177 170 167 247 290 296 270 248 241 232 214 196 188 176 167 159 156 154 125 122 6 337 238 206 215 249 251 234 263 273 292 298 271 260 268 267 273 236 202 217 344 87 183 199 158 157 164 156 151 157 160 162 167 172 175 179 183
2 358 350 342 336 330 323 316 309 300 288 282 281 285 290 294 304 314 321 326 328 330 326 324 324 320 318 294 261 238 208 192 190 225 251 274 292 249 218 236 232 218 198 182 170 163 154 160 171 88 356 327 327 246 241 279 271 270 264 275 299 355 328 267 252 253 202 236 233 187 206 341 208 233 160 154 158 160 155 152 158 163 166 172 176 179 181 185
359 0 355 345 337 333 328 321 317 309 297 286 280 281 284 290 298 305 314 318 319 321 318 317 310 313 313 289 274 245 203 203 208 247 249 250 278 229 181 194 204 205 193 177 167 162 163 184 214 295 307 283 269 272 306 311 291 275 22 125 315 6 333 282 352 152 164 239 209 158 228 281 255 265 162 159 159 153 150 154 163 168 171 175 178 181 181 184
353 357 357 351 340 334 331 326 322 316 307 294 284 281 282 288 293 300 309 310 312 313 311 308 301 308 301 282 293 250 211 214 222 243 246 241 255 214 171 164 166 169 173 172 170 178 188 208 247 282 284 258 252 285 320 331 351 307 348 50 360 23 287 290 315 125 155 256 190 158 240 256 264 270 173 167 165 155 152 161 170 172 174 176 178 181 181 184
347 350 354 354 346 335 331 329 325 318 311 300 290 285 284 287 292 298 303 302 306 307 304 302 296 305 301 288 290 244 219 225 233 241 234 238 230 183 155 146 144 149 158 167 180 195 204 230 260 274 278 258 257 328 354 344 6 31 50 322 346 128 269 300 297 176 193 276 181 158 241 255 267 240 174 171 168 158 154 165 175 176 175 175 178 180 182 186
342 344 347 351 351 342 332 329 326 320 315 309 301 295 290 289 292 294 297 299 302 299 296 294 292 307 305 296 290 218 233 241 247 244 219 213 190 156 135 133 133 143 157 170 193 210 228 256 270 274 285 227 127 82 46 7 349 1 87 222 282 171 279 315 315 213 204 265 174 170 185 247 287 226 173 171 169 161 157 167 178 180 177 176 180 183 185 186
338 340 341 345 349 347 337 328 326 323 320 317 312 306 301 297 296 295 296 298 296 290 286 278 287 301 280 260 267 173 37 306 266 239 215 184 176 158 134 137 134 148 175 204 237 243 242 246 248 254 342 60 79 86 62 5 312 319 27 85 251 230 278 311 311 298 167 147 230 183 160 235 296 217 169 168 169 165 161 171 179 179 177 180 184 187 188 189
334 336 337 339 343 347 343 331 327 327 324 323 322 322 317 311 306 301 297 295 293 292 288 264 262 311 270 238 252 229 32 350 304 232 210 183 179 174 153 156 144 160 190 206 231 220 213 222 142 108 23 19 39 87 125 220 204 202 170 30 296 290 291 267 276 308 32 334 216 154 156 241 300 180 164 166 170 169 168 177 179 177 179 185 189 192 192 193
331 332 334 335 337 341 343 337 331 328 326 326 331 331 326 326 319 307 302 281 238 230 290 255 217 259 277 263 262 272 310 316 311 242 208 184 180 186 183 190 197 190 140 127 196 175 167 159 74 99 4 283 197 145 178 202 164 145 169 171 201 261 277 259 259 265 48 101 196 183 183 213 225 175 165 163 166 166 171 177 170 172 182 189 192 196 198 197
327 329 330 332 333 335 338 339 333 323 320 323 332 334 334 347 341 316 309 280 263 274 283 272 255 257 269 275 273 281 299 303 292 234 199 185 183 185 190 202 204 123 100 140 188 165 122 116 176 205 209 216 213 187 169 166 133 110 131 165 212 222 271 270 268 282 232 116 244 214 175 200 201 187 171 157 159 161 166 169 166 174 185 193 196 199 203 203
325 325 327 329 329 330 331 333 332 317 312 319 328 333 351 10 359 314 310 293 284 286 281 276 269 262 265 270 270 280 300 308 256 203 194 194 186 180 196 191 112 57 278 164 142 10 76 114 231 222 208 203 201 177 144 131 100 66 144 197 261 221 246 262 262 307 312 103 337 317 139 209 227 208 202 161 158 168 173 173 175 179 186 195 201 203 206 208
323 322 324 325 326 328 325 326 328 314 307 313 317 333 2 1 343 318 306 292 293 293 284 275 264 259 261 258 260 270 283 289 247 205 197 197 191 189 184 153 128 178 283 86 83 1 33 243 247 228 184 153 143 141 132 128 107 84 131 152 266 244 268 286 284 321 346 86 353 69 116 302 295 254 229 183 170 188 189 187 183 184 189 196 204 205 206 210
322 320 320 321 322 324 321 320 322 313 304 305 311 339 349 328 332 327 298 268 293 296 284 267 253 251 253 251 252 250 238 239 243 220 202 195 194 193 172 140 145 154 78 118 145 124 105 252 248 198 144 135 125 129 114 99 117 131 137 135 256 260 114 301 301 331 349 63 119 120 94 338 325 360 163 186 80 116 181 195 193 193 196 200 205 205 205 208
320 319 317 317 317 319 319 316 317 312 299 298 309 324 328 318 330 334 305 252 289 296 282 267 251 248 247 244 240 223 212 218 224 208 202 197 186 184 188 160 130 144 186 171 153 162 222 238 185 123 141 160 162 160 134 137 233 265 185 161 227 250 184 212 296 345 346 20 75 83 47 344 342 8 198 193 96 100 155 173 190 202 204 208 211 210 209 210
320 318 316 315 313 313 317 314 315 314 298 301 304 293 315 317 323 333 325 281 293 286 285 263 240 244 231 213 202 198 197 217 224 202 199 203 189 172 189 171 144 189 204 159 134 178 249 241 167 138 164 174 165 189 183 167 179 306 240 192 198 204 189 219 334 24 34 9 15 65 63 326 322 325 261 269 78 110 153 164 182 200 207 214 216 214 211 212
320 317 316 315 310 309 313 311 312 311 302 301 269 284 308 308 317 330 343 28 319 274 288 209 221 218 192 191 184 166 151 222 224 209 199 207 200 184 162 164 164 198 182 151 131 198 248 221 149 151 155 148 152 222 224 165 128 317 246 191 173 155 145 143 54 57 89 317 331 68 112 216 315 316 300 324 34 126 167 184 191 199 206 216 219 216 212 212
319 317 315 313 312 310 308 304 299 303 304 289 248 275 292 291 310 323 344 24 326 268 181 170 206 167 182 194 170 150 103 200 199 207 203 201 198 190 187 196 171 187 172 131 113 231 190 137 76 101 116 122 148 237 225 150 122 228 229 158 147 152 163 142 91 84 176 204 326 14 93 123 310 281 299 347 39 337 280 224 219 208 208 216 221 222 217 214
318 316 312 310 311 309 304 298 295 300 293 247 250 265 271 286 307 326 58 37 317 281 147 195 180 158 186 184 173 168 142 149 153 208 206 198 191 185 198 215 181 180 172 124 182 256 190 170 175 128 99 132 196 218 189 152 139 233 197 136 137 145 142 117 96 93 32 89 312 331 33 100 258 278 319 14 44 315 280 242 242 226 216 216 221 225 225 221
316 314 310 307 306 304 300 291 291 297 246 224 253 256 253 268 308 39 86 18 294 356 342 182 149 171 163 159 187 203 208 122 104 184 190 191 193 184 195 213 171 147 154 118 184 248 241 203 195 142 129 211 221 217 177 164 171 189 143 101 76 72 72 71 90 101 43 64 233 291 355 101 255 290 344 26 33 300 277 259 242 231 224 219 219 223 226 226
314 310 306 304 301 299 294 285 286 277 220 219 252 244 232 228 51 59 94 256 269 304 9 166 178 180 140 128 210 235 238 274 91 136 159 179 191 187 145 178 144 123 50 22 187 247 295 249 190 152 177 198 173 120 163 163 136 130 109 70 53 35 30 43 50 80 66 9 249 265 298 116 220 286 299 47 295 269 273 282 266 233 223 218 218 222 224 225
312 306 301 299 297 294 287 284 291 236 203 207 243 227 172 129 78 91 202 252 279 302 11 18 295 51 130 152 231 257 264 285 108 129 147 160 175 171 106 142 110 74 9 348 311 299 336 345 241 244 217 167 110 79 50 27 73 106 84 76 80 12 9 31 358 41 82 265 256 261 263 131 164 250 240 256 275 265 253 266 270 260 229 219 214 216 219 221
312 304 297 293 290 285 278 277 271 191 187 194 242 223 164 114 79 171 236 311 344 281 350 309 304 358 316 180 190 218 197 229 218 139 152 146 153 177 167 174 162 66 349 277 288 333 320 258 277 305 241 163 114 90 49 6 30 82 85 89 97 20 11 37 315 8 138 242 264 331 338 158 211 230 225 259 280 280 270 271 275 279 267 237 213 207 210 213
312 303 297 289 283 280 275 272 255 213 201 215 238 186 99 104 219 219 240 301 272 271 337 296 305 312 269 107 183 217 156 207 224 179 155 129 151 203 232 162 151 118 155 210 178 350 300 300 319 330 274 189 133 127 155 292 55 129 133 123 123 100 83 202 267 313 238 246 305 344 346 277 266 264 233 266 291 300 305 321 309 285 269 231 199 190 191 197
315 308 300 290 284 280 274 265 247 224 215 213 190 96 101 149 232 225 229 249 256 311 351 303 306 314 296 132 233 209 116 254 211 148 134 103 141 219 259 242 160 116 112 142 158 171 174 305 276 197 222 206 155 152 161 153 136 171 160 127 140 152 140 188 215 177 203 237 331 329 324 153 207 271 280 284 315 336 356 63 75 79 99 115 126 138 150 162
320 315 306 298 292 281 265 245 231 217 205 189 128 88 149 202 242 210 217 243 276 329 316 308 335 10 351 317 286 139 122 263 152 113 141 141 166 206 191 204 197 128 119 150 211 168 146 235 256 261 244 157 167 182 139 115 99 250 141 110 148 181 141 128 173 170 164 145 59 272 230 200 209 277 303 318 1 16 41 84 86 84 95 104 104 101 102 103
327 324 317 319 320 283 242 222 213 204 191 167 115 144 196 214 218 187 203 221 55 339 328 337 45 78 322 312 317 350 98 100 22 72 171 175 188 208 193 209 193 159 147 158 201 158 131 250 282 315 314 115 158 186 146 133 167 184 130 162 213 169 118 109 134 27 83 126 202 247 265 301 335 316 316 358 26 17 22 71 92 96 98 99 99 100 98 94
335 335 341 1 342 300 235 210 198 191 181 156 135 206 213 222 201 193 233 33 350 28 58 18 326 192 255 304 312 308 43 44 4 6 242 226 221 201 204 247 181 182 182 161 202 199 146 251 298 7 120 347 50 110 76 55 123 127 175 196 184 108 95 105 114 20 52 144 257 327 264 283 4 173 297 353 47 359 345 4 87 108 108 107 109 108 102 99
339 343 4 351 331 299 232 202 189 181 170 151 176 213 211 223 201 192 350 20 345 41 79 162 255 269 193 188 274 276 102 91 351 355 302 265 257 185 181 190 154 215 208 165 177 255 123 214 294 287 178 319 18 81 62 359 48 115 168 157 113 124 131 95 122 127 117 161 269 326 316 238 202 215 245 209 197 204 253 341 16 95 115 123 131 130 133 157
341 349 8 351 334 279 204 185 179 173 160 149 204 211 211 225 250 271 293 322 162 109 109 215 236 324 234 186 207 242 186 159 153 58 41 290 260 198 188 187 158 271 209 157 158 248 99 134 268 283 268 329 11 62 154 311 12 51 91 68 45 128 154 156 141 148 146 153 207 294 360 260 226 213 204 209 215 209 203 188 48 71 122 136 151 149 148 160
351 16 9 353 346 170 160 165 169 166 153 170 193 202 232 225 271 274 265 279 212 172 228 213 199 287 266 252 207 208 308 153 143 125 146 266 271 244 250 203 153 342 103 126 128 96 79 117 209 288 333 32 56 11 195 186 140 77 71 65 28 75 121 142 91 87 126 139 171 170 244 266 252 208 200 223 223 204 190 172 148 126 126 138 150 149 145 147
4 58 6 351 356 138 139 151 164 158 136 147 174 204 254 221 266 275 256 247 229 239 233 200 201 232 229 294 258 210 97 138 146 128 150 252 273 233 279 245 188 184 89 88 99 148 124 129 173 289 5 63 197 290 274 216 173 140 125 150 146 127 127 123 108 301 106 122 163 160 189 265 264 211 223 238 211 184 174 161 150 134 129 136 141 145 148 144
15 74 2 351 123 143 129 149 203 36 129 143 189 197 226 219 215 268 260 245 224 234 236 205 225 232 209 227 244 206 106 148 208 145 157 185 179 196 326 320 254 176 120 123 175 194 151 108 103 72 22 214 254 294 327 316 113 107 95 105 122 117 112 123 169 216 112 94 143 124 133 266 265 258 262 248 175 150 162 166 153 140 137 139 141 141 142 137
19 46 13 7 158 144 81 87 321 10 186 256 220 199 222 206 206 250 243 261 238 239 287 231 217 219 222 230 208 125 95 115 140 170 182 166 153 273 342 337 300 137 90 139 208 10 95 88 82 31 315 313 305 330 355 12 60 70 46 51 83 41 82 137 172 171 133 149 140 95 145 263 276 302 299 225 139 125 143 162 152 143 140 141 143 140 137 135
22 40 32 37 153 160 39 49 301 334 291 327 13 344 311 258 31 323 235 26 356 338 343 287 255 359 291 334 82 95 109 114 80 28 260 149 113 9 12 13 3 58 57 183 195 155 112 78 100 100 21 348 337 342 345 351 33 68 32 1 40 56 61 103 131 80 109 186 154 129 202 252 278 330 3 51 101 100 108 138 148 144 139 138 139 138 138 138
19 35 35 45 74 73 50 39 293 287 300 353 25 9 347 356 29 37 94 68 17 38 66 289 297 328 339 38 53 36 43 83 107 57 12 334 340 18 26 33 43 50 36 43 126 141 128 82 115 127 142 174 186 231 250 266 11 50 30 8 36 75 79 141 120 87 135 196 142 140 204 252 304 358 16 24 49 59 72 122 142 142 138 139 140 143 146 146
35 33 7 28 53 57 47 30 18 4 316 18 46 16 2 322 346 31 71 64 24 42 59 354 329 347 29 43 50 24 21 35 67 77 35 335 314 351 17 45 53 34 24 52 66 107 112 57 76 125 148 179 184 218 226 146 95 87 41 16 12 27 51 83 89 110 182 168 171 220 194 167 346 358 3 357 6 19 18 35 64 89 125 144 149 152 154 152
56 36 333 344 27 36 33 25 21 16 2 17 67 357 357 337 325 11 43 50 25 33 59 34 17 25 12 19 73 42 358 10 41 52 14 328 284 297 356 46 50 24 17 43 19 51 104 48 19 87 82 147 162 242 277 95 107 138 115 47 350 360 44 71 83 223 154 125 222 263 175 125 359 344 349 340 344 354 6 15 23 37 66 150 166 164 163 160
61 45 13 29 12 353 24 14 0 11 23 22 52 20 5 13 23 14 2 18 28 21 39 39 20 20 344 312 114 61 355 9 33 10 339 354 330 321 358 27 33 19 23 33 8 57 114 70 360 78 39 31 61 24 4 59 67 67 84 63 337 12 52 83 129 269 137 138 208 217 103 90 323 333 337 327 332 353 27 34 44 56 54 141 183 178 174 170
63 64 34 51 62 13 18 360 345 19 27 15 22 25 9 14 23 9 341 351 16 11 38 77 10 4 14 31 96 81 15 37 41 359 343 359 342 348 13 359 351 8 21 34 13 49 106 83 115 112 60 28 31 24 29 71 65 23 15 12 22 70 81 98 108 317 33 135 166 125 96 67 320 308 324 340 28 63 62 56 56 57 58 106 170 181 183 179
50 52 25 50 55 17 10 15 19 39 27 12 20 11 2 8 5 360 22 34 20 349 24 70 14 355 28 44 67 90 66 110 91 8 9 17 355 18 53 25 315 349 8 29 5 16 78 117 159 106 77 7 358 31 52 92 102 77 356 356 36 86 84 70 47 5 48 90 107 101 89 64 360 353 14 44 65 67 60 53 50 52 62 98 126 142 160 170
44 43 30 54 46 2 360 8 26 64 32 10 13 357 356 360 351 356 43 39 43 33 3 4 338 344 25 40 52 64 344 239 227 283 293 279 330 323 332 20 327 341 358 16 3 2 62 119 138 84 99 261 314 95 118 106 104 109 18 2 10 59 95 75 42 18 58 140 132 101 95 102 329 11 48 60 64 63 56 49 50 54 63 80 93 102 113 124
35 41 40 65 57 7 1 1 14 51 68 341 330 345 346 345 356 22 56 23 27 33 19 0 344 9 34 38 27 348 324 306 286 294 296 283 286 286 283 296 297 295 335 9 35 18 69 133 147 108 126 186 278 98 123 100 97 138 273 337 5 78 120 98 47 13 1 131 146 141 156 193 251 42 71 64 60 62 58 52 52 55 62 71 79 85 91 95